When you browse on this site, cookies collect data to enhance your experience and personalize the content and advertising you see.
Visit our Privacy Policy to learn more. By continuing to use the site, you agree to this use of cookies and data.

Hourly Weather Cape Coast

Today, 26 September, Saturday

Time Temperature Precipitation Wind Pressure Humidity
00:00 +25°C° 0 mm 4 mps 760 mmHg 96%
01:00 +25°C° 0 mm 4 mps 759 mmHg 96%
02:00 +25°C° 0 mm 4 mps 759 mmHg 95%
03:00 +25°C° 0 mm 4 mps 758 mmHg 95%
04:00 +25°C° 0.1 mm 4 mps 759 mmHg 96%
05:00 +25°C° 0.1 mm 3 mps 759 mmHg 96%
06:00 +25°C° 0.1 mm 3 mps 759 mmHg 97%
07:00 +26°C° 0.2 mm 3 mps 759 mmHg 92%
08:00 +27°C° 0.2 mm 4 mps 760 mmHg 87%
09:00 +28°C° 0.2 mm 4 mps 760 mmHg 82%
10:00 +29°C° 0.2 mm 4 mps 760 mmHg 80%
11:00 +29°C° 0.2 mm 4 mps 759 mmHg 78%
12:00 +29°C° 0.2 mm 5 mps 759 mmHg 77%
13:00 +29°C° 0.4 mm 5 mps 758 mmHg 78%
14:00 +29°C° 0.4 mm 5 mps 757 mmHg 79%
15:00 +29°C° 0.4 mm 6 mps 757 mmHg 80%
16:00 +28°C° 0.1 mm 5 mps 757 mmHg 83%
17:00 +27°C° 0.1 mm 5 mps 757 mmHg 86%
18:00 +26°C° 0.1 mm 5 mps 757 mmHg 88%
19:00 +26°C° 0 mm 5 mps 758 mmHg 89%
20:00 +26°C° 0 mm 5 mps 758 mmHg 91%
21:00 +26°C° 0 mm 5 mps 758 mmHg 92%
22:00 +25°C° 0 mm 4 mps 758 mmHg 93%
23:00 +25°C° 0 mm 4 mps 758 mmHg 95%

Tomorrow, 27 September, Sunday

Time Temperature Precipitation Wind Pressure Humidity
00:00 +25°C° 0 mm 3 mps 758 mmHg 96%
01:00 +25°C° 0.1 mm 3 mps 758 mmHg 96%
02:00 +25°C° 0.1 mm 3 mps 757 mmHg 95%
03:00 +25°C° 0.1 mm 3 mps 757 mmHg 94%
04:00 +25°C° 0.1 mm 3 mps 757 mmHg 93%
05:00 +25°C° 0.1 mm 3 mps 757 mmHg 93%
06:00 +25°C° 0.1 mm 3 mps 758 mmHg 92%
07:00 +26°C° 0.1 mm 3 mps 758 mmHg 89%
08:00 +27°C° 0.1 mm 4 mps 759 mmHg 86%
09:00 +27°C° 0.1 mm 4 mps 759 mmHg 83%
10:00 +28°C° 0 mm 4 mps 759 mmHg 79%
11:00 +29°C° 0 mm 5 mps 758 mmHg 75%
12:00 +30°C° 0 mm 5 mps 758 mmHg 71%
13:00 +29°C° 0.2 mm 5 mps 757 mmHg 72%
14:00 +29°C° 0.2 mm 5 mps 757 mmHg 74%
15:00 +29°C° 0.2 mm 6 mps 756 mmHg 75%
16:00 +28°C° 0.1 mm 5 mps 756 mmHg 79%
17:00 +27°C° 0.1 mm 5 mps 757 mmHg 83%
18:00 +26°C° 0.1 mm 5 mps 757 mmHg 87%
19:00 +26°C° 0 mm 4 mps 757 mmHg 89%
20:00 +26°C° 0 mm 4 mps 758 mmHg 91%
21:00 +25°C° 0 mm 4 mps 759 mmHg 93%
22:00 +25°C° 0 mm 4 mps 758 mmHg 92%
23:00 +25°C° 0 mm 4 mps 758 mmHg 92%

Day after tomorrow, 28 September, Monday

Time Temperature Precipitation Wind Pressure Humidity
00:00 +25°C° 0 mm 4 mps 758 mmHg 92%
01:00 +25°C° 0 mm 4 mps 758 mmHg 92%
02:00 +25°C° 0 mm 4 mps 757 mmHg 92%
03:00 +25°C° 0 mm 4 mps 757 mmHg 92%
04:00 +25°C° 0 mm 4 mps 757 mmHg 92%
05:00 +25°C° 0 mm 3 mps 758 mmHg 93%
06:00 +25°C° 0 mm 3 mps 758 mmHg 93%
07:00 +26°C° 0 mm 3 mps 758 mmHg 89%
08:00 +27°C° 0 mm 3 mps 759 mmHg 84%
09:00 +28°C° 0 mm 3 mps 760 mmHg 80%
10:00 +28°C° 0.3 mm 3 mps 759 mmHg 78%
11:00 +29°C° 0.3 mm 3 mps 759 mmHg 77%
12:00 +29°C° 0.3 mm 3 mps 758 mmHg 75%
13:00 +29°C° 0.8 mm 4 mps 758 mmHg 77%
14:00 +29°C° 0.8 mm 4 mps 757 mmHg 79%
15:00 +29°C° 0.8 mm 5 mps 756 mmHg 80%
16:00 +28°C° 0.1 mm 5 mps 756 mmHg 83%
17:00 +27°C° 0.1 mm 4 mps 757 mmHg 85%
18:00 +26°C° 0.1 mm 4 mps 757 mmHg 88%
19:00 +26°C° 0 mm 4 mps 757 mmHg 90%
20:00 +26°C° 0 mm 4 mps 758 mmHg 92%
21:00 +25°C° 0 mm 3 mps 759 mmHg 94%
22:00 +25°C° 0 mm 3 mps 759 mmHg 95%
23:00 +25°C° 0 mm 3 mps 759 mmHg 96%

29 September, Tuesday

Time Temperature Precipitation Wind Pressure Humidity
00:00 +25°C° 0 mm 3 mps 759 mmHg 97%
01:00 +25°C° 0 mm 4 mps 759 mmHg 95%
02:00 +25°C° 0 mm 4 mps 758 mmHg 94%
03:00 +26°C° 0 mm 4 mps 758 mmHg 92%
04:00 +26°C° 0.1 mm 4 mps 758 mmHg 92%
05:00 +26°C° 0.1 mm 4 mps 758 mmHg 92%
06:00 +26°C° 0.1 mm 3 mps 759 mmHg 92%
07:00 +26°C° 0.1 mm 3 mps 759 mmHg 90%
08:00 +27°C° 0.1 mm 3 mps 759 mmHg 87%
09:00 +27°C° 0.1 mm 3 mps 760 mmHg 85%
10:00 +28°C° 0.1 mm 3 mps 759 mmHg 81%
11:00 +29°C° 0.1 mm 3 mps 759 mmHg 76%
12:00 +30°C° 0.1 mm 4 mps 759 mmHg 72%
13:00 +30°C° 0 mm 4 mps 758 mmHg 73%
14:00 +30°C° 0 mm 5 mps 757 mmHg 74%
15:00 +30°C° 0 mm 5 mps 757 mmHg 75%
16:00 +29°C° 0 mm 5 mps 757 mmHg 79%
17:00 +27°C° 0 mm 5 mps 757 mmHg 83%
18:00 +26°C° 0 mm 5 mps 757 mmHg 88%
19:00 +26°C° 0 mm 5 mps 758 mmHg 89%
20:00 +26°C° 0 mm 5 mps 758 mmHg 91%
21:00 +26°C° 0 mm 5 mps 759 mmHg 93%
22:00 +26°C° 0 mm 4 mps 759 mmHg 93%
23:00 +25°C° 0 mm 4 mps 759 mmHg 94%

30 September, Wednesday

Time Temperature Precipitation Wind Pressure Humidity
00:00 +25°C° 0 mm 4 mps 759 mmHg 94%
01:00 +25°C° 0 mm 4 mps 758 mmHg 93%
02:00 +26°C° 0 mm 4 mps 758 mmHg 92%
03:00 +26°C° 0 mm 4 mps 758 mmHg 91%
04:00 +26°C° 0 mm 3 mps 758 mmHg 91%
05:00 +26°C° 0 mm 3 mps 758 mmHg 91%
06:00 +26°C° 0 mm 3 mps 758 mmHg 91%
07:00 +26°C° 0 mm 3 mps 759 mmHg 87%
08:00 +27°C° 0 mm 3 mps 759 mmHg 83%
09:00 +28°C° 0 mm 3 mps 760 mmHg 79%
10:00 +29°C° 0.1 mm 4 mps 759 mmHg 75%
11:00 +30°C° 0.1 mm 4 mps 759 mmHg 71%
12:00 +32°C° 0.1 mm 5 mps 758 mmHg 67%
13:00 +30°C° 0.4 mm 5 mps 757 mmHg 71%
14:00 +30°C° 0.4 mm 5 mps 757 mmHg 74%
15:00 +29°C° 0.4 mm 5 mps 756 mmHg 78%
16:00 +28°C° 0.3 mm 5 mps 756 mmHg 82%
17:00 +27°C° 0.3 mm 5 mps 757 mmHg 85%
18:00 +26°C° 0.3 mm 4 mps 757 mmHg 89%
19:00 +26°C° 0 mm 5 mps 757 mmHg 90%
20:00 +26°C° 0 mm 5 mps 758 mmHg 90%
21:00 +26°C° 0 mm 5 mps 758 mmHg 91%
22:00 +26°C° 0.1 mm 5 mps 758 mmHg 92%
23:00 +26°C° 0.1 mm 5 mps 758 mmHg 93%

1 October, Thursday

Time Temperature Precipitation Wind Pressure Humidity
00:00 +25°C° 0.1 mm 4 mps 758 mmHg 93%
01:00 +25°C° 0.2 mm 4 mps 757 mmHg 93%
02:00 +25°C° 0.2 mm 4 mps 757 mmHg 93%
03:00 +25°C° 0.2 mm 4 mps 757 mmHg 93%
04:00 +25°C° 0.3 mm 5 mps 757 mmHg 93%
05:00 +25°C° 0.3 mm 5 mps 757 mmHg 93%
06:00 +25°C° 0.3 mm 5 mps 757 mmHg 93%
07:00 +26°C° 0.4 mm 5 mps 758 mmHg 91%
08:00 +26°C° 0.4 mm 5 mps 758 mmHg 89%
09:00 +27°C° 0.4 mm 6 mps 758 mmHg 87%
10:00 +28°C° 0.6 mm 6 mps 758 mmHg 84%
11:00 +29°C° 0.6 mm 6 mps 757 mmHg 82%
12:00 +29°C° 0.6 mm 7 mps 757 mmHg 80%
13:00 +29°C° 0.4 mm 7 mps 756 mmHg 80%
14:00 +29°C° 0.4 mm 7 mps 756 mmHg 79%
15:00 +29°C° 0.4 mm 7 mps 755 mmHg 79%
16:00 +28°C° 0.1 mm 6 mps 755 mmHg 82%
17:00 +27°C° 0.1 mm 6 mps 756 mmHg 85%
18:00 +26°C° 0.1 mm 6 mps 756 mmHg 89%
19:00 +26°C° 0 mm 5 mps 757 mmHg 90%
20:00 +26°C° 0 mm 5 mps 757 mmHg 91%
21:00 +26°C° 0 mm 5 mps 758 mmHg 92%
22:00 +26°C° 0.1 mm 5 mps 758 mmHg 92%
23:00 +26°C° 0.1 mm 5 mps 758 mmHg 92%
Show more